This is the latest recevied weather packets stored in our database for station/object N7IGG. If no packets are shown the sender has not sent any weather packets the latest 10 day(s).
| Time | Temp. | Humidity | Pressure | Rain* | Wind** | Luminosity | Snow |
|---|---|---|---|---|---|---|---|
| 1777841559 | 21.11° C | 56% | 1012.2 hPa | 0 mm | - | 661 W/m² | - |
| 1777841255 | 21.67° C | 54% | 1012.3 hPa | 0 mm | - | 692 W/m² | - |
| 1777840954 | 21.67° C | 56% | 1012.2 hPa | 0 mm | - | 676 W/m² | - |
| 1777840651 | 21.11° C | 58% | 1012.3 hPa | 0 mm | - | 702 W/m² | - |
| 1777840348 | 20.56° C | 61% | 1012.4 hPa | 0 mm | - | 710 W/m² | - |
| 1777840045 | 20.56° C | 63% | 1012.5 hPa | 0 mm | - | 680 W/m² | - |
| 1777839743 | 20.56° C | 63% | 1012.7 hPa | 0 mm | - | 694 W/m² | - |
| 1777839440 | 20.56° C | 63% | 1012.5 hPa | 0 mm | - | 675 W/m² | - |
| 1777839138 | 20° C | 62% | 1012.8 hPa | 0 mm | - | 668 W/m² | - |
| 1777838834 | 20.56° C | 62% | 1012.8 hPa | 0 mm | - | 683 W/m² | - |
| 1777838531 | 20° C | 65% | 1012.9 hPa | 0 mm | - | 668 W/m² | - |
| 1777838227 | 19.44° C | 65% | 1012.9 hPa | 0 mm | - | 679 W/m² | - |
| 1777837924 | 20° C | 66% | 1012.9 hPa | 0 mm | - | 672 W/m² | - |
| 1777837621 | 18.89° C | 69% | 1013 hPa | 0 mm | - | 669 W/m² | - |
| 1777837317 | 18.33° C | 71% | 1013.2 hPa | 0 mm | - | 689 W/m² | - |
| 1777837014 | 18.33° C | 73% | 1013 hPa | 0 mm | - | 701 W/m² | - |
| 1777836709 | 18.33° C | 73% | 1013.3 hPa | 0 mm | - | 657 W/m² | - |
| 1777836405 | 17.22° C | 75% | 1013.3 hPa | 0 mm | - | 613 W/m² | - |
| 1777836101 | 16.67° C | 74% | 1013.3 hPa | 0 mm | - | 71 W/m² | - |
| 1777835798 | 17.78° C | 74% | 1013.2 hPa | 0 mm | - | 629 W/m² | - |
| 1777835495 | 17.78° C | 74% | 1013.2 hPa | 0 mm | - | 617 W/m² | - |
| 1777835192 | 17.78° C | 75% | 1013.5 hPa | 0 mm | - | 642 W/m² | - |
| 1777834889 | 17.22° C | 75% | 1013.6 hPa | 0 mm | - | 608 W/m² | - |
| 1777834585 | 16.67° C | 76% | 1013.5 hPa | 0 mm | - | 614 W/m² | - |
| 1777834280 | 16.67° C | 76% | 1013.6 hPa | 0 mm | - | 84 W/m² | - |
* Rain latest hour (hover to see other rain measurements)
** Current wind speed in m/s (hover to see current wind gust speed)